Regional Weather Roundup
Issued by NWS Little Rock, AR

Home | Current Version | Previous Version | Graphics & Text | Print | Product List | Glossary On
Versions: 1 2 3 4 5 6 7 8 9 10 11 12 13 14 15 16 17 18 19 20 21 22 23 24 25 26 27 28 29 30 31 32 33 34 35 36 37 38 39 40 41 42 43 44 45 46 47 48 49 50
287
ASUS44 KLZK 141205
RWRLZK

WEATHER ROUNDUP FOR ARKANSAS
NATIONAL WEATHER SERVICE LITTLE ROCK AR
600 AM CST SUN FEB 14 2016

NOTE: "FAIR" INDICATES FEW OR NO CLOUDS BELOW 12,000 FEET WITH NO
SIGNIFICANT WEATHER AND/OR OBSTRUCTIONS TO VISIBILITY.

ARZ001-003-010-029-141300-
NORTHWEST ARKANSAS

CITY           SKY/WX    TMP DP  RH WIND       PRES   REMARKS
FAYETTEVILLE   CLOUDY    38  24  57 S8G22     30.00S
6HR MIN TEMP:  35; 6HR MAX TEMP:  38;

FORT SMITH     CLOUDY    34  14  43 E13       30.05F WCI  25
6HR MIN TEMP:  34; 6HR MAX TEMP:  37;

HARRISON       CLOUDY    29  10  45 SE14      30.05F WCI  18
6HR MIN TEMP:  28; 6HR MAX TEMP:  29;

BENTONVILLE    CLOUDY    39  19  45 SE7       30.00S
6HR MIN TEMP:  36; 6HR MAX TEMP:  39;

ROGERS         CLOUDY    38  21  50 SE9       29.99F
6HR MIN TEMP:  34; 6HR MAX TEMP:  38;

SILOAM SPGS    CLOUDY    37  19  48 S10       29.98F
6HR MIN TEMP:  36; 6HR MAX TEMP:  37;

HIGHFILL       CLOUDY    39  25  57 S12       29.98F
6HR MIN TEMP:  36; 6HR MAX TEMP:  39;

SPRINGDALE     CLOUDY    37  21  52 SE9       30.01
$$

ARZ004-005-016-141300-
NORTH CENTRAL ARKANSAS

CITY           SKY/WX    TMP DP  RH WIND       PRES   REMARKS
BATESVILLE     CLOUDY    30  12  47 E8        30.20F WCI  23
6HR MIN TEMP:  25; 6HR MAX TEMP:  30;

FLIPPIN        CLOUDY    28   7  40 E7        30.11F WCI  21
6HR MIN TEMP:  27; 6HR MAX TEMP:  28;

MTN HOME       CLOUDY    26   9  48 SE12G18   30.12F WCI  16
6HR MIN TEMP:  24; 6HR MAX TEMP:  26;

$$

ARZ040-041-141300-
WEST CENTRAL ARKANSAS

CITY           SKY/WX    TMP DP  RH WIND       PRES   REMARKS
MENA           CLOUDY    45  30  57 E3        30.06F
MOUNT IDA      CLOUDY    38  16  40 SE6       30.07F
6HR MIN TEMP:  37; 6HR MAX TEMP:  38;

$$

ARZ009-017-025-026-028-141300-
NORTHEAST ARKANSAS

CITY           SKY/WX    TMP DP  RH WIND       PRES   REMARKS
JONESBORO      CLOUDY    30  13  49 E14       30.24F WCI  19
6HR MIN TEMP:  24; 6HR MAX TEMP:  30;

NEWPORT        CLOUDY    32  13  45 E12       30.23F WCI  23
6HR MIN TEMP:  23; 6HR MAX TEMP:  32;

WALNUT RIDGE   CLOUDY    28  16  59 SE14      30.24F WCI  17
6HR MIN TEMP:  25; 6HR MAX TEMP:  30;

BLYTHEVILLE    CLOUDY    31  11  43 E15       30.27F WCI  20
6HR MIN TEMP:  28; 6HR MAX TEMP:  32;

$$

ARZ022-023-033-042-044-141300-
CENTRAL ARKANSAS

CITY           SKY/WX    TMP DP  RH WIND       PRES   REMARKS
LITTLE ROCK    CLOUDY    35  18  49 E7        30.17F WCI  29
6HR MIN TEMP:  33; 6HR MAX TEMP:  35;

N LITTLE ROCK    N/A     33  20  59 E8        30.17F WCI  26
6HR MIN TEMP:  31; 6HR MAX TEMP:  33;

JACKSONVILLE   CLOUDY    33  15  47 E6        30.15F WCI  28
6HR MIN TEMP:  31; 6HR MAX TEMP:  33;

SEARCY         CLOUDY    32  15  49 E8        30.20F WCI  25
6HR MIN TEMP:  29; 6HR MAX TEMP:  32;

HOT SPRINGS    CLOUDY    36  16  44 SE6       30.13F
6HR MIN TEMP:  36; 6HR MAX TEMP:  36;

RUSSELLVILLE   CLOUDY    32  14  47 VRB5      30.14F WCI  27
6HR MIN TEMP:  30; 6HR MAX TEMP:  32;

CLINTON        CLOUDY    32  14  47 CALM      30.17F
$$

ARZ036-141300-
EAST ARKANSAS

CITY           SKY/WX    TMP DP  RH WIND       PRES   REMARKS
WEST MEMPHIS   CLOUDY    33  11  39 SE14      30.21F HAZE    WCI  23
6HR MIN TEMP:  29; 6HR MAX TEMP:  33;

$$

ARZ050-053-066-070-073-141300-
SOUTHWEST ARKANSAS

CITY           SKY/WX    TMP DP  RH WIND       PRES   REMARKS
ARKADELPHIA    PTSUNNY   38  19  46 E3        30.16S
6HR MIN TEMP:  38; 6HR MAX TEMP:  39;

CAMDEN         CLOUDY    41  16  36 SE3       30.15S
TEXARKANA      CLOUDY    42  22  44 SE6       30.11S
6HR MIN TEMP:  42; 6HR MAX TEMP:  43;

EL DORADO      CLOUDY    43  22  43 SE6       30.14F
6HR MIN TEMP:  40; 6HR MAX TEMP:  44;

DE QUEEN       CLOUDY    41  22  46 E8        30.10R
6HR MIN TEMP:  41; 6HR MAX TEMP:  43;

$$

ARZ056-057-069-141300-
SOUTHEAST ARKANSAS

CITY           SKY/WX    TMP DP  RH WIND       PRES   REMARKS
PINE BLUFF     CLOUDY    38  20  48 SE12      30.16F
6HR MIN TEMP:  35; 6HR MAX TEMP:  38;

STUTTGART      CLOUDY    36  18  48 E13       30.17S
6HR MIN TEMP:  32; 6HR MAX TEMP:  36;

MONTICELLO     CLOUDY    41  21  44 E6        30.17F
6HR MIN TEMP:  37; 6HR MAX TEMP:  41;


$$






USA.gov is the U.S. government's official web portal to all federal, state and local government web resources and services.